{"data":{"norad_id":56419,"epoch":"2026-09-20T03:38:50.644320Z","epoch_age_seconds":142214,"freshness":"FRESH","line1":"1 56419U 23061AX  26263.15197505  .00000306  00000+0  20630-4 0  9992","line2":"2 56419  43.0020 168.9355 0001407 264.2285  95.8406 15.27576802186611","mean_motion":15.27576802,"eccentricity":0.0001407,"inclination_deg":43.002,"raan_deg":168.9355,"arg_perigee_deg":264.2285,"mean_anomaly_deg":95.8406,"bstar":2.063e-5,"rev_number":18661,"period_min":94.266946062199,"perigee_km":482.09330178778,"apogee_km":484.02404224989,"semimajor_km":6861.1956720188,"source":"CELESTRAK","updated_at":"2026-09-21T09:00:33.438457Z"}}